When you browse on this site, cookies collect data to enhance your experience and personalize the content and advertising you see.
Visit our Privacy Policy to learn more. By continuing to use the site, you agree to this use of cookies and data.
  • In Denmark
  • List of Countries
  • For 7 days
  • Water Temperature
  • Weather Map
  • Weather Widgets
  • user-avatar
    Login

    Hourly Weather Pluskowesy

    Today, 12 November, Tuesday

    Time Temperature Precipitation Wind Pressure Humidity
    00:00 +1°C° 0 mm 5 mps 750 mmHg 78%
    01:00 +1°C° 0 mm 5 mps 750 mmHg 80%
    02:00 +1°C° 0 mm 5 mps 749 mmHg 80%
    03:00 +2°C° 0 mm 5 mps 749 mmHg 81%
    04:00 +2°C° 0 mm 5 mps 749 mmHg 82%
    05:00 +2°C° 0 mm 5 mps 748 mmHg 81%
    06:00 +3°C° 0 mm 5 mps 748 mmHg 80%
    07:00 +3°C° 0 mm 5 mps 748 mmHg 76%
    08:00 +3°C° 0 mm 5 mps 748 mmHg 75%
    09:00 +5°C° 0 mm 5 mps 749 mmHg 73%
    10:00 +6°C° 0 mm 5 mps 749 mmHg 71%
    11:00 +6°C° 0.2 mm 5 mps 749 mmHg 74%
    12:00 +6°C° 0.2 mm 4 mps 749 mmHg 77%
    13:00 +7°C° 0.2 mm 4 mps 748 mmHg 79%
    14:00 +7°C° 0 mm 3 mps 748 mmHg 81%
    15:00 +7°C° 0 mm 2 mps 748 mmHg 83%
    16:00 +8°C° 0 mm 1 mps 748 mmHg 85%
    17:00 +8°C° 0.1 mm 1 mps 748 mmHg 85%
    18:00 +7°C° 0.1 mm 2 mps 748 mmHg 86%
    19:00 +7°C° 0.1 mm 2 mps 748 mmHg 86%
    20:00 +7°C° 0.4 mm 2 mps 747 mmHg 88%
    21:00 +7°C° 0.4 mm 2 mps 747 mmHg 90%
    22:00 +7°C° 0.4 mm 2 mps 747 mmHg 93%
    23:00 +7°C° 0.5 mm 2 mps 747 mmHg 94%

    Tomorrow, 13 November, Wednesday

    Time Temperature Precipitation Wind Pressure Humidity
    00:00 +7°C° 0.5 mm 2 mps 746 mmHg 95%
    01:00 +7°C° 0.5 mm 2 mps 746 mmHg 96%
    02:00 +7°C° 0.1 mm 2 mps 746 mmHg 96%
    03:00 +7°C° 0.1 mm 2 mps 745 mmHg 96%
    04:00 +7°C° 0.1 mm 2 mps 745 mmHg 96%
    05:00 +7°C° 0 mm 2 mps 744 mmHg 96%
    06:00 +7°C° 0 mm 2 mps 744 mmHg 96%
    07:00 +7°C° 0 mm 2 mps 744 mmHg 96%
    08:00 +8°C° 0 mm 2 mps 743 mmHg 94%
    09:00 +8°C° 0 mm 3 mps 743 mmHg 92%
    10:00 +8°C° 0 mm 3 mps 743 mmHg 90%
    11:00 +9°C° 1 mm 2 mps 742 mmHg 92%
    12:00 +9°C° 1 mm 2 mps 742 mmHg 94%
    13:00 +9°C° 1 mm 2 mps 742 mmHg 97%
    14:00 +9°C° 1.6 mm 2 mps 742 mmHg 97%
    15:00 +10°C° 1.6 mm 1 mps 742 mmHg 97%
    16:00 +10°C° 1.6 mm 1 mps 742 mmHg 98%
    17:00 +10°C° 0.1 mm 1 mps 742 mmHg 98%
    18:00 +10°C° 0.1 mm 1 mps 742 mmHg 98%
    19:00 +10°C° 0.1 mm 1 mps 743 mmHg 97%
    20:00 +10°C° 0.5 mm 1 mps 743 mmHg 97%
    21:00 +10°C° 0.5 mm 1 mps 742 mmHg 97%
    22:00 +10°C° 0.5 mm 1 mps 742 mmHg 97%
    23:00 +10°C° 1.2 mm 1 mps 742 mmHg 97%

    Day after tomorrow, 14 November, Thursday

    Time Temperature Precipitation Wind Pressure Humidity
    00:00 +9°C° 1.2 mm 2 mps 742 mmHg 97%
    01:00 +9°C° 1.2 mm 2 mps 742 mmHg 97%
    02:00 +8°C° 0.9 mm 3 mps 742 mmHg 96%
    03:00 +8°C° 0.9 mm 3 mps 742 mmHg 95%
    04:00 +7°C° 0.9 mm 4 mps 742 mmHg 94%
    05:00 +6°C° 0.3 mm 4 mps 743 mmHg 92%
    06:00 +6°C° 0.3 mm 4 mps 744 mmHg 90%
    07:00 +5°C° 0.3 mm 4 mps 745 mmHg 89%
    08:00 +5°C° 0 mm 4 mps 746 mmHg 87%
    09:00 +5°C° 0 mm 3 mps 747 mmHg 85%
    10:00 +7°C° 0 mm 3 mps 748 mmHg 84%
    11:00 +7°C° 0 mm 2 mps 748 mmHg 81%
    12:00 +7°C° 0 mm 2 mps 749 mmHg 78%
    13:00 +7°C° 0 mm 2 mps 750 mmHg 76%
    14:00 +7°C° 0 mm 2 mps 750 mmHg 76%
    15:00 +8°C° 0 mm 1 mps 750 mmHg 77%
    16:00 +8°C° 0 mm 1 mps 750 mmHg 78%
    17:00 +8°C° 0 mm 1 mps 750 mmHg 79%
    18:00 +8°C° 0 mm 1 mps 751 mmHg 79%
    19:00 +7°C° 0 mm 2 mps 751 mmHg 80%
    20:00 +6°C° 0 mm 2 mps 751 mmHg 83%
    21:00 +6°C° 0 mm 2 mps 751 mmHg 86%
    22:00 +4°C° 0 mm 3 mps 751 mmHg 89%
    23:00 +4°C° 0 mm 3 mps 751 mmHg 90%

    15 November, Friday

    Time Temperature Precipitation Wind Pressure Humidity
    00:00 +4°C° 0 mm 3 mps 750 mmHg 90%
    01:00 +4°C° 0 mm 4 mps 750 mmHg 91%
    02:00 +5°C° 0 mm 4 mps 750 mmHg 93%
    03:00 +5°C° 0 mm 4 mps 750 mmHg 94%
    04:00 +5°C° 0 mm 4 mps 750 mmHg 96%
    05:00 +6°C° 0 mm 4 mps 750 mmHg 96%
    06:00 +6°C° 0 mm 4 mps 750 mmHg 96%
    07:00 +7°C° 0 mm 4 mps 750 mmHg 96%
    08:00 +8°C° 0 mm 4 mps 750 mmHg 94%
    09:00 +9°C° 0 mm 5 mps 750 mmHg 91%
    10:00 +9°C° 0 mm 5 mps 750 mmHg 88%
    11:00 +10°C° 0 mm 5 mps 750 mmHg 85%
    12:00 +12°C° 0 mm 5 mps 750 mmHg 81%
    13:00 +13°C° 0 mm 5 mps 750 mmHg 78%
    14:00 +13°C° 0 mm 5 mps 749 mmHg 79%
    15:00 +12°C° 0 mm 5 mps 749 mmHg 81%
    16:00 +12°C° 0 mm 5 mps 749 mmHg 82%
    17:00 +12°C° 0 mm 5 mps 749 mmHg 83%
    18:00 +10°C° 0 mm 5 mps 749 mmHg 85%
    19:00 +10°C° 0 mm 5 mps 750 mmHg 86%
    20:00 +10°C° 0 mm 5 mps 750 mmHg 87%
    21:00 +10°C° 0 mm 5 mps 750 mmHg 88%
    22:00 +9°C° 0 mm 5 mps 750 mmHg 89%
    23:00 +9°C° 0 mm 5 mps 750 mmHg 90%

    16 November, Saturday

    Time Temperature Precipitation Wind Pressure Humidity
    00:00 +9°C° 0 mm 5 mps 750 mmHg 90%
    01:00 +9°C° 0 mm 5 mps 750 mmHg 90%
    02:00 +9°C° 0 mm 5 mps 749 mmHg 90%
    03:00 +9°C° 0 mm 5 mps 749 mmHg 90%
    04:00 +8°C° 0 mm 5 mps 749 mmHg 90%
    05:00 +8°C° 0 mm 5 mps 749 mmHg 89%
    06:00 +9°C° 0 mm 6 mps 749 mmHg 88%
    07:00 +9°C° 0 mm 6 mps 749 mmHg 86%
    08:00 +10°C° 0 mm 6 mps 749 mmHg 82%
    09:00 +11°C° 0 mm 6 mps 750 mmHg 77%
    10:00 +11°C° 0 mm 6 mps 750 mmHg 72%
    11:00 +13°C° 0 mm 6 mps 751 mmHg 71%
    12:00 +13°C° 0 mm 5 mps 751 mmHg 70%
    13:00 +14°C° 0 mm 5 mps 751 mmHg 69%
    14:00 +13°C° 0 mm 4 mps 752 mmHg 72%
    15:00 +12°C° 0 mm 3 mps 752 mmHg 75%
    16:00 +12°C° 0 mm 2 mps 753 mmHg 79%
    17:00 +10°C° 0 mm 2 mps 753 mmHg 79%
    18:00 +10°C° 0 mm 1 mps 754 mmHg 79%
    19:00 +10°C° 0 mm 1 mps 754 mmHg 79%
    20:00 +9°C° 0 mm 1 mps 755 mmHg 80%
    21:00 +9°C° 0 mm 1 mps 755 mmHg 80%
    22:00 +9°C° 0 mm 1 mps 755 mmHg 81%
    23:00 +8°C° 0 mm 2 mps 755 mmHg 82%

    17 November, Sunday

    Time Temperature Precipitation Wind Pressure Humidity
    00:00 +8°C° 0 mm 2 mps 755 mmHg 84%
    01:00 +7°C° 0 mm 2 mps 755 mmHg 85%
    02:00 +8°C° 0 mm 3 mps 755 mmHg 87%
    03:00 +8°C° 0 mm 3 mps 754 mmHg 89%
    04:00 +8°C° 0 mm 3 mps 754 mmHg 91%
    05:00 +8°C° 0 mm 4 mps 754 mmHg 90%
    06:00 +8°C° 0 mm 4 mps 753 mmHg 90%
    07:00 +8°C° 0 mm 4 mps 753 mmHg 90%
    08:00 +9°C° 0 mm 5 mps 753 mmHg 85%
    09:00 +9°C° 0 mm 5 mps 753 mmHg 81%
    10:00 +10°C° 0 mm 5 mps 753 mmHg 77%
    11:00 +10°C° 0 mm 6 mps 752 mmHg 77%
    12:00 +10°C° 0 mm 6 mps 752 mmHg 77%
    13:00 +10°C° 0 mm 6 mps 751 mmHg 76%
    14:00 +9°C° 0 mm 5 mps 751 mmHg 78%
    15:00 +9°C° 0 mm 5 mps 751 mmHg 79%
    16:00 +8°C° 0 mm 4 mps 751 mmHg 80%
    17:00 +8°C° 0 mm 4 mps 751 mmHg 81%
    18:00 +7°C° 0 mm 4 mps 751 mmHg 82%
    19:00 +7°C° 0 mm 4 mps 751 mmHg 84%
    20:00 +7°C° 0 mm 4 mps 751 mmHg 84%
    21:00 +7°C° 0 mm 4 mps 751 mmHg 85%
    22:00 +6°C° 0 mm 4 mps 751 mmHg 86%
    23:00 +6°C° 0 mm 4 mps 751 mmHg 86%
    Show more